CW6261 Weather Reports


Display with metric or nautical units.
time (UTC)temp
F
wind
direction
speed
MPH
gust
MPH
rain 1hr
in
rain 24hr
in
rain mn
in
humidity
%
barometer
mb
20260904013202 83 180 1.0 3.0 0.00 0.00 0.00 67 101.1
20260904012701 83 180 5.0 5.0 0.00 0.00 0.00 67 101.0
20260904011703 84 169 2.0 3.0 0.00 0.00 0.00 66 101.0
20260904011202 84 174 1.0 4.0 0.00 0.00 0.00 66 101.0
20260904010702 84 180 2.0 9.0 0.00 0.00 0.00 66 101.0
20260904010202 84 161 3.0 10.0 0.00 0.00 0.00 65 101.0
20260904005702 84 24 2.0 11.0 0.00 0.00 0.00 65 101.0
20260904005201 84 126 2.0 6.0 0.00 0.00 0.00 65 101.0
20260904004702 85 196 4.0 6.0 0.00 0.00 0.00 65 101.0
20260904004202 85 111 1.0 6.0 0.00 0.00 0.00 65 101.0
20260904003702 85 210 2.0 9.0 0.00 0.00 0.00 64 101.0
20260904003201 85 178 1.0 5.0 0.00 0.00 0.00 65 101.0
20260904002702 85 134 2.0 9.0 0.00 0.00 0.00 64 101.0
20260904002202 86 180 2.0 5.0 0.00 0.00 0.00 63 101.0
20260904001702 86 75 3.0 4.0 0.00 0.00 0.00 63 101.0
20260904001202 86 180 3.0 6.0 0.00 0.00 0.00 62 101.0
20260904000702 86 120 1.0 3.0 0.00 0.00 0.00 62 101.0
20260904000203 87 197 2.0 8.0 0.00 0.00 0.00 61 101.0
20260903235702 86 210 2.0 7.0 0.00 0.00 0.00 61 101.0
20260903234701 87 151 1.0 6.0 0.00 0.00 0.00 60 101.0
20260903234202 87 156 6.0 6.0 0.00 0.00 0.00 60 101.0
20260903233702 88 171 3.0 6.0 0.00 0.00 0.00 61 101.0
20260903233202 88 140 1.0 5.0 0.00 0.00 0.00 60 101.0
20260903232702 88 102 2.0 5.0 0.00 0.00 0.00 60 101.0
20260903232202 88 188 6.0 9.0 0.00 0.00 0.00 61 101.0
20260903231702 88 137 1.0 5.0 0.00 0.00 0.00 61 101.0
20260903231202 89 196 2.0 5.0 0.00 0.00 0.00 60 101.0
20260903230703 89 185 6.0 6.0 0.00 0.00 0.00 60 101.0
20260903230202 89 128 2.0 6.0 0.00 0.00 0.00 60 101.0
20260903225702 90 163 6.0 10.0 0.00 0.00 0.00 60 101.0
20260903225202 90 110 2.0 4.0 0.00 0.00 0.00 61 101.0
20260903224703 91 359 1.0 11.0 0.00 0.00 0.00 60 101.0
20260903224202 92 117 3.0 6.0 0.00 0.00 0.00 58 101.0
20260903223702 91 192 1.0 9.0 0.00 0.00 0.00 56 101.0
20260903222702 91 175 2.0 7.0 0.00 0.00 0.00 57 101.0
20260903222202 91 145 1.0 7.0 0.00 0.00 0.00 56 101.0
20260903221701 92 127 2.0 4.0 0.00 0.00 0.00 55 101.0
20260903221202 91 139 1.0 4.0 0.00 0.00 0.00 53 101.0
20260903220702 92 153 3.0 8.0 0.00 0.00 0.00 53 101.0
20260903220202 93 117 4.0 9.0 0.00 0.00 0.00 51 101.0
20260903215702 93 115 0.0 4.0 0.00 0.00 0.00 51 101.0
20260903215202 93 210 3.0 4.0 0.00 0.00 0.00 51 101.0
20260903214702 93 125 4.0 4.0 0.00 0.00 0.00 50 101.0
20260903213703 94 187 3.0 5.0 0.00 0.00 0.00 50 101.0
20260903212702 94 120 1.0 7.0 0.00 0.00 0.00 49 101.0
20260903212202 92 96 1.0 2.0 0.00 0.00 0.00 49 101.0
20260903211702 93 120 1.0 3.0 0.00 0.00 0.00 50 101.0
20260903211202 93 59 1.0 4.0 0.00 0.00 0.00 49 101.0
20260903210702 93 98 1.0 3.0 0.00 0.00 0.00 49 101.0
20260903205702 94 111 0.0 6.0 0.00 0.00 0.00 49 101.0
20260903205202 95 173 1.0 10.0 0.00 0.00 0.00 47 101.0
20260903204202 97 178 2.0 9.0 0.00 0.00 0.00 45 101.0
20260903203702 95 177 3.0 6.0 0.00 0.00 0.00 46 101.0
20260903203202 95 152 1.0 11.0 0.00 0.00 0.00 46 101.0
20260903202202 95 212 5.0 6.0 0.00 0.00 0.00 45 101.0
20260903201701 96 192 6.0 7.0 0.00 0.00 0.00 45 101.0
20260903200702 96 195 3.0 7.0 0.00 0.00 0.00 44 101.0
20260903200203 97 165 1.0 7.0 0.00 0.00 0.00 43 101.0
20260903195702 96 220 1.0 7.0 0.00 0.00 0.00 44 101.0
20260903195202 95 233 0.0 5.0 0.00 0.00 0.00 45 101.0
20260903194702 95 115 1.0 3.0 0.00 0.00 0.00 45 101.0
20260903194202 94 176 0.0 6.0 0.00 0.00 0.00 47 101.0
20260903193702 94 205 3.0 6.0 0.00 0.00 0.00 46 101.0
20260903193202 94 144 1.0 3.0 0.00 0.00 0.00 48 101.1
20260903192702 92 256 0.0 2.0 0.00 0.00 0.00 49 101.1
20260903192202 93 120 0.0 8.0 0.00 0.00 0.00 49 101.1
20260903191702 93 202 2.0 6.0 0.00 0.00 0.00 50 101.1
20260903191202 92 184 1.0 4.0 0.00 0.00 0.00 51 101.1
20260903185702 91 255 2.0 4.0 0.00 0.00 0.00 50 101.0
20260903185202 92 214 2.0 5.0 0.00 0.00 0.00 50 101.0
20260903184202 91 209 1.0 4.0 0.00 0.00 0.00 51 101.0
20260903183703 92 187 1.0 6.0 0.00 0.00 0.00 51 101.0
20260903182202 92 212 4.0 8.0 0.00 0.00 0.00 50 101.2
20260903181702 91 228 2.0 6.0 0.00 0.00 0.00 51 101.2
20260903181202 92 180 2.0 10.0 0.00 0.00 0.00 51 101.2
20260903180703 92 193 7.0 8.0 0.00 0.00 0.00 51 101.2
20260903180202 91 201 1.0 6.0 0.00 0.00 0.00 52 101.1
20260903175702 91 174 3.0 6.0 0.00 0.00 0.00 54 101.1
20260903175202 91 268 2.0 6.0 0.00 0.00 0.00 53 101.1
20260903174702 90 204 3.0 6.0 0.00 0.00 0.00 54 101.1
20260903174202 90 203 2.0 4.0 0.00 0.00 0.00 53 101.1
20260903173703 91 180 2.0 5.0 0.00 0.00 0.00 53 101.1
20260903173202 89 228 1.0 2.0 0.00 0.00 0.00 53 101.2
20260903172202 90 236 3.0 4.0 0.00 0.00 0.00 53 101.2
20260903171702 89 189 3.0 6.0 0.00 0.00 0.00 55 101.2
20260903171202 90 211 4.0 8.0 0.00 0.00 0.00 54 101.2
20260903170703 90 213 5.0 6.0 0.00 0.00 0.00 55 101.2
20260903165702 90 195 5.0 10.0 0.00 0.00 0.00 55 101.2
20260903165202 90 163 4.0 6.0 0.00 0.00 0.00 54 101.2
20260903164703 88 247 4.0 8.0 0.00 0.00 0.00 56 101.2
20260903163702 88 232 4.0 5.0 0.00 0.00 0.00 58 101.2
20260903163202 87 213 3.0 5.0 0.00 0.00 0.00 59 101.2
20260903162702 87 257 2.0 6.0 0.00 0.00 0.00 61 101.2
20260903162202 87 234 3.0 6.0 0.00 0.00 0.00 62 101.2
20260903161702 87 224 3.0 7.0 0.00 0.00 0.00 61 101.2
20260903161202 87 239 4.0 5.0 0.00 0.00 0.00 61 101.2
20260903160702 87 227 4.0 8.0 0.00 0.00 0.00 62 101.2
20260903160203 87 258 4.0 7.0 0.00 0.00 0.00 62 101.2
20260903155702 87 236 3.0 8.0 0.00 0.00 0.00 61 101.2
20260903154702 86 261 4.0 5.0 0.00 0.00 0.00 63 101.2
20260903154202 86 239 4.0 9.0 0.00 0.00 0.00 63 101.2
20260903153202 87 216 7.0 8.0 0.00 0.00 0.00 63 101.2
20260903152202 85 232 2.0 7.0 0.00 0.00 0.00 66 101.2
20260903151703 85 244 4.0 10.0 0.00 0.00 0.00 68 101.2
20260903151203 84 260 5.0 9.0 0.00 0.00 0.00 68 101.2
20260903150702 84 263 3.0 6.0 0.00 0.00 0.00 70 101.2
20260903150202 84 206 3.0 11.0 0.00 0.00 0.00 71 101.2
20260903145702 84 218 4.0 12.0 0.00 0.00 0.00 71 101.2
20260903145203 83 216 5.0 9.0 0.00 0.00 0.00 71 101.2
20260903144702 83 225 6.0 6.0 0.00 0.00 0.00 72 101.2
20260903144202 84 217 7.0 10.0 0.00 0.00 0.00 71 101.2
20260903143703 83 250 5.0 8.0 0.00 0.00 0.00 73 101.2
20260903142201 83 225 2.0 8.0 0.00 0.00 0.00 75 101.2
20260903141702 83 226 4.0 9.0 0.00 0.00 0.00 75 101.2
20260903141203 82 278 4.0 6.0 0.00 0.00 0.00 76 101.2
20260903140702 82 240 3.0 9.0 0.00 0.00 0.00 77 101.2
20260903135702 81 243 2.0 5.0 0.00 0.00 0.00 79 101.2
20260903134702 81 255 7.0 8.0 0.00 0.00 0.00 80 101.2
20260903133202 80 243 2.0 5.0 0.00 0.00 0.00 83 101.2
20260903132702 80 221 3.0 5.0 0.00 0.00 0.00 83 101.2
20260903132203 80 239 2.0 6.0 0.00 0.00 0.00 83 101.2
20260903131702 80 234 2.0 7.0 0.00 0.00 0.00 83 101.2
20260903131202 80 218 4.0 5.0 0.00 0.00 0.00 84 101.2
20260903130202 79 194 1.0 4.0 0.00 0.00 0.00 84 101.2
20260903125701 80 247 4.0 5.0 0.00 0.00 0.00 84 101.2
20260903125201 79 250 3.0 4.0 0.00 0.00 0.00 85 101.2
20260903124702 79 199 3.0 8.0 0.00 0.00 0.00 85 101.2
20260903124202 79 202 2.0 5.0 0.00 0.00 0.00 86 101.2
20260903123702 79 200 3.0 6.0 0.00 0.00 0.00 86 101.2
20260903123202 79 163 1.0 4.0 0.00 0.00 0.00 86 101.2
20260903122702 79 211 5.0 6.0 0.00 0.00 0.00 86 101.2
20260903122202 79 216 4.0 7.0 0.00 0.00 0.00 86 101.2
20260903121702 79 232 3.0 9.0 0.00 0.00 0.00 86 101.2
20260903115702 79 210 2.0 5.0 0.00 0.00 0.00 86 101.1
20260903115201 79 237 2.0 7.0 0.00 0.00 0.00 86 101.1
20260903114702 79 196 3.0 8.0 0.00 0.00 0.00 86 101.1
20260903113202 79 196 6.0 7.0 0.00 0.00 0.00 86 101.2
20260903112702 79 232 2.0 5.0 0.00 0.00 0.00 85 101.2
20260903112202 79 186 2.0 8.0 0.00 0.00 0.00 85 101.2
20260903111701 79 193 7.0 8.0 0.00 0.00 0.00 86 101.1
20260903111202 79 230 2.0 7.0 0.00 0.00 0.00 86 101.1
20260903105702 79 192 2.0 10.0 0.00 0.00 0.00 86 101.1
20260903105202 79 202 2.0 6.0 0.00 0.00 0.00 86 101.1
20260903104701 79 233 4.0 11.0 0.00 0.00 0.00 86 101.1
20260903104202 79 232 3.0 7.0 0.00 0.00 0.00 85 101.1
20260903103702 79 255 2.0 7.0 0.00 0.00 0.00 86 101.1
20260903102702 79 197 7.0 10.0 0.00 0.00 0.00 86 101.1
20260903102202 79 241 4.0 12.0 0.00 0.00 0.00 86 101.1
20260903101702 79 234 2.0 11.0 0.00 0.00 0.00 86 101.1
20260903101202 79 185 2.0 7.0 0.00 0.00 0.00 86 101.1
20260903100701 79 208 2.0 6.0 0.00 0.00 0.00 86 101.1
20260903095702 79 173 3.0 8.0 0.00 0.00 0.00 85 101.1
20260903095202 79 208 4.0 7.0 0.00 0.00 0.00 85 101.1
20260903094702 79 215 5.0 7.0 0.00 0.00 0.00 85 101.1
20260903094201 79 195 6.0 7.0 0.00 0.00 0.00 85 101.1
20260903093701 79 238 3.0 6.0 0.00 0.00 0.00 85 101.1
20260903092702 79 201 2.0 7.0 0.00 0.00 0.00 84 101.2
20260903091703 79 240 3.0 7.0 0.00 0.00 0.00 84 101.2
20260903090702 79 198 4.0 6.0 0.00 0.00 0.00 84 101.2
20260903090204 79 192 2.0 9.0 0.00 0.00 0.00 83 101.1
20260903085701 80 193 3.0 5.0 0.00 0.00 0.00 83 101.1
20260903085202 80 280 6.0 7.0 0.00 0.00 0.00 83 101.1
20260903084702 80 272 4.0 6.0 0.00 0.00 0.00 83 101.1
20260903084202 80 236 4.0 7.0 0.00 0.00 0.00 82 101.1
20260903083702 80 194 2.0 9.0 0.00 0.00 0.00 82 101.1
20260903083202 80 200 6.0 7.0 0.00 0.00 0.00 82 101.2
20260903081702 80 250 7.0 8.0 0.00 0.00 0.00 82 101.2
20260903081203 80 176 6.0 9.0 0.00 0.00 0.00 81 101.2
20260903080702 80 184 5.0 7.0 0.00 0.00 0.00 81 101.2
20260903080202 80 204 3.0 6.0 0.00 0.00 0.00 80 101.2
20260903075702 80 234 2.0 5.0 0.00 0.00 0.00 80 101.2
20260903075202 80 217 2.0 6.0 0.00 0.00 0.00 80 101.2
20260903074203 80 189 4.0 7.0 0.00 0.00 0.00 79 101.2
20260903073702 80 186 3.0 6.0 0.00 0.00 0.00 79 101.2
20260903073201 80 182 4.0 5.0 0.00 0.00 0.00 78 101.2
20260903072702 81 194 2.0 8.0 0.00 0.00 0.00 78 101.2
20260903071701 81 188 3.0 5.0 0.00 0.00 0.00 77 101.2
20260903070702 81 186 2.0 10.0 0.00 0.00 0.00 76 101.2
20260903070202 81 185 3.0 6.0 0.00 0.00 0.00 75 101.2
20260903065202 81 185 4.0 6.0 0.00 0.00 0.00 74 101.2
20260903064704 81 201 5.0 6.0 0.00 0.00 0.00 74 101.2
20260903064202 81 205 4.0 11.0 0.00 0.00 0.00 74 101.2
20260903063703 81 188 7.0 8.0 0.00 0.00 0.00 73 101.2
20260903062202 81 190 6.0 6.0 0.00 0.00 0.00 74 101.2
20260903061702 81 188 3.0 5.0 0.00 0.00 0.00 74 101.2
20260903061202 81 197 3.0 4.0 0.00 0.00 0.00 74 101.2
20260903060702 81 183 4.0 6.0 0.00 0.00 0.00 75 101.2
20260903055702 80 223 2.0 5.0 0.00 0.00 0.00 75 101.2
20260903054703 80 71 1.0 4.0 0.00 0.00 0.00 76 101.2
20260903054202 80 200 5.0 5.0 0.00 0.00 0.00 76 101.2
20260903053202 80 189 2.0 8.0 0.00 0.00 0.00 77 101.2
20260903052702 80 302 2.0 6.0 0.00 0.00 0.00 77 101.2
20260903052202 80 184 2.0 7.0 0.00 0.00 0.00 77 101.2
20260903051702 80 195 1.0 5.0 0.00 0.00 0.00 77 101.2
20260903051203 80 126 0.0 6.0 0.00 0.00 0.00 77 101.2
20260903050702 80 158 2.0 4.0 0.00 0.00 0.00 77 101.2
20260903045703 80 186 3.0 3.0 0.00 0.00 0.00 77 101.2
20260903045202 80 182 0.0 2.0 0.00 0.00 0.00 77 101.2
20260903044702 80 153 0.0 1.0 0.00 0.00 0.00 76 101.2
20260903044201 80 140 1.0 2.0 0.00 0.00 0.00 76 101.2
20260903043702 80 212 1.0 2.0 0.00 0.00 0.00 76 101.2
20260903043203 80 162 1.0 5.0 0.00 0.00 0.00 75 101.2
20260903042702 80 168 0.0 6.0 0.00 0.00 0.00 74 101.2
20260903042202 81 152 0.0 2.0 0.00 0.00 0.00 73 101.2
20260903041702 81 204 4.0 4.0 0.00 0.00 0.00 73 101.2
20260903041202 81 217 3.0 3.0 0.00 0.00 0.00 72 101.2
20260903040702 81 228 0.0 4.0 0.00 0.00 0.00 71 101.2
20260903040202 81 92 1.0 4.0 0.00 0.00 0.00 70 101.2
20260903035702 82 117 1.0 2.0 0.00 0.00 0.00 70 101.2
20260903035202 82 36 0.0 5.0 0.00 0.00 0.00 70 101.2
20260903034702 82 195 3.0 3.0 0.00 0.00 0.00 69 101.2
20260903034202 82 108 2.0 11.0 0.00 0.00 0.00 68 101.2
20260903033202 84 149 2.0 3.0 0.00 0.00 0.00 62 101.2
20260903032702 84 95 1.0 3.0 0.00 0.00 0.00 62 101.2
20260903032202 85 111 2.0 3.0 0.00 0.00 0.00 61 101.2
20260903031702 85 145 1.0 4.0 0.00 0.00 0.00 60 101.1
20260903031202 86 54 1.0 2.0 0.00 0.00 0.00 58 101.1
20260903030702 86 105 1.0 2.0 0.00 0.00 0.00 56 101.1
20260903030202 86 113 1.0 4.0 0.00 0.00 0.00 55 101.1
20260903025703 87 105 1.0 1.0 0.00 0.00 0.00 54 101.1
20260903025202 87 119 1.0 2.0 0.00 0.00 0.00 54 101.1
20260903024703 87 162 1.0 2.0 0.00 0.00 0.00 54 101.1
20260903023702 87 202 0.0 1.0 0.00 0.00 0.00 54 101.1
20260903023202 87 239 0.0 1.0 0.00 0.00 0.00 54 101.0
20260903022702 87 209 0.0 2.0 0.00 0.00 0.00 53 101.0
20260903022202 88 217 0.0 2.0 0.00 0.00 0.00 53 101.0
20260903021701 88 224 0.0 0.0 0.00 0.00 0.00 53 101.0
20260903021202 88 230 0.0 1.0 0.00 0.00 0.00 53 101.0
20260903020702 88 217 0.0 1.0 0.00 0.00 0.00 54 101.0
20260903015702 88 205 0.0 1.0 0.00 0.00 0.00 53 101.0
20260903015202 88 248 0.0 1.0 0.00 0.00 0.00 53 101.0
20260903014702 88 185 0.0 1.0 0.00 0.00 0.00 52 101.0
20260903014202 88 220 0.0 2.0 0.00 0.00 0.00 52 101.0
20260903013703 88 205 0.0 3.0 0.00 0.00 0.00 52 101.0